Location: Bullenkuhlen
(53.7689°N, 9.7495°E)
Time: 02:37:26
(UTC+00:00)

Cosmos 1656 - Pass Details

Date: 09 April 2020
Orbit: 798 x 849 km, 71.1° (Epoch: 26 May)

Event Time Altitude Azimuth Distance (km) Brightness Sun altitude
Rises 19:39:01 0° 328° (NNW) 3,426 8.2 -12.5°
Reaches altitude 10° 19:41:30 10° 330° (NNW) 2,485 7.2 -12.8°
Maximum altitude 19:47:12 69° 54° (NE) 904 3.8 -13.5°
Enters shadow 19:51:10 20° 135° (SE) 1,849 4.8 -14.0°
